"date_time","site_id","latitude","longitude","notes","water_temperature","water_temperature_units","pH","pH_units","specific_conductivity","specific_conductivity_units","turbidity","turbidity_units","conductivity","conductivity_units","temperature_at_analyis","temperature_at_analyis_units","water_hub_qa_qc"
"2017-12-02 00:00:00","silverton_creek","49.95278","-117.35944","n/a","2.5","degrees Celsius","8.1","pH units","126","microSiemens per centimetre","0.39","NTU","95.8","microSiemens per centimetre","12.5","Degrees Celsius","n/a"
"2017-12-18 00:00:00","silverton_creek","49.95278","-117.35944","n/a","0.9","degrees Celsius","8.16","pH units","129.4","microSiemens per centimetre","0.35","NTU","96.6","microSiemens per centimetre","11.7","Degrees Celsius","n/a"
"2017-12-31 00:00:00","silverton_creek","49.95278","-117.35944","n/a","0.2","degrees Celsius","8.1","pH units","134.8","microSiemens per centimetre","0.84","NTU","102.3","microSiemens per centimetre","12.4","Degrees Celsius","n/a"
"2018-01-16 00:00:00","silverton_creek","49.95278","-117.35944","n/a","1.4","degrees Celsius","8.12","pH units","139.7","microSiemens per centimetre","0.77","NTU","106.4","microSiemens per centimetre","12.5","Degrees Celsius","n/a"
"2018-01-29 00:00:00","silverton_creek","49.95278","-117.35944","n/a","1.7","degrees Celsius","8.16","pH units","140.2","microSiemens per centimetre","0.39","NTU","105.4","microSiemens per centimetre","12","Degrees Celsius","n/a"
"2018-02-11 00:00:00","silverton_creek","49.95278","-117.35944","Analysis","1","degrees Celsius","8.12","pH units","160.3","microSiemens per centimetre","0.72","NTU","120.5","microSiemens per centimetre","12","Degrees Celsius","n/a"
"2018-02-24 00:00:00","silverton_creek","49.95278","-117.35944","n/a","0.8","degrees Celsius","8.01","pH units","151.8","microSiemens per centimetre","0.37","NTU","129","microSiemens per centimetre","17","Degrees Celsius","n/a"
"2018-03-12 00:00:00","silverton_creek","49.95278","-117.35944","n/a","2.7","degrees Celsius","7.93","pH units","159.1","microSiemens per centimetre","0.41","NTU","134","microSiemens per centimetre","16.7","Degrees Celsius","n/a"
"2018-03-25 00:00:00","silverton_creek","49.95278","-117.35944","n/a","3.1","degrees Celsius","7.97","pH units","184.4","microSiemens per centimetre","0.43","NTU","156.9","microSiemens per centimetre","17.2","Degrees Celsius","n/a"
"2018-04-08 00:00:00","silverton_creek","49.95278","-117.35944","Water level slowly coming up","5.1","degrees Celsius","7.97","pH units","191.1","microSiemens per centimetre","0.67","NTU","163.4","microSiemens per centimetre","17.4","Degrees Celsius","n/a"
"2018-04-22 00:00:00","silverton_creek","49.95278","-117.35944","n/a","6.1","degrees Celsius","8.03","pH units","206.2","microSiemens per centimetre","0.36","NTU","176.3","microSiemens per centimetre","17.4","Degrees Celsius","n/a"
"2018-04-29 00:00:00","silverton_creek","49.95278","-117.35944","High water levels","5.9","degrees Celsius","7.53","pH units","147.5","microSiemens per centimetre","4.39","NTU","126.2","microSiemens per centimetre","17.4","Degrees Celsius","n/a"
"2018-05-07 00:00:00","silverton_creek","49.95278","-117.35944","n/a","6.3","degrees Celsius","7.52","pH units","106.1","microSiemens per centimetre","5.78","NTU","90.8","microSiemens per centimetre","17.5","Degrees Celsius","n/a"
"2018-05-15 00:00:00","silverton_creek","49.95278","-117.35944","Analysis","7","degrees Celsius","7.6","pH units","76.3","microSiemens per centimetre","14.3","NTU","65.6","microSiemens per centimetre","17.5","Degrees Celsius","n/a"
"2018-05-21 00:00:00","silverton_creek","49.95278","-117.35944","n/a","6.2","degrees Celsius","7.62","pH units","70.1","microSiemens per centimetre","2.93","NTU","65.3","microSiemens per centimetre","21.4","Degrees Celsius","n/a"
"2018-05-27 00:00:00","silverton_creek","49.95278","-117.35944","Water level slowly going down","7.9","degrees Celsius","7.39","pH units","58.7","microSiemens per centimetre","3.46","NTU","54.3","microSiemens per centimetre","21.1","Degrees Celsius","n/a"
"2018-06-03 00:00:00","silverton_creek","49.95278","-117.35944","n/a","8.1","degrees Celsius","7.44","pH units","69.6","microSiemens per centimetre","1.09","NTU","64.5","microSiemens per centimetre","21.2","Degrees Celsius","n/a"
"2018-06-10 00:00:00","silverton_creek","49.95278","-117.35944","n/a","6.3","degrees Celsius","7.43","pH units","62.5","microSiemens per centimetre","0.83","NTU","57.6","microSiemens per centimetre","20.9","Degrees Celsius","n/a"
"2018-06-23 00:00:00","silverton_creek","49.95278","-117.35944","n/a","9.1","degrees Celsius","7.45","pH units","58.6","microSiemens per centimetre","0.97","NTU","54.3","microSiemens per centimetre","21.1","Degrees Celsius","n/a"
"2018-07-01 00:00:00","silverton_creek","49.95278","-117.35944","Analysis - new pH electrode","9.7","degrees Celsius","7.48","pH units","74.1","microSiemens per centimetre","0.74","NTU","68.9","microSiemens per centimetre","21.3","Degrees Celsius","n/a"
"2018-07-09 00:00:00","silverton_creek","49.95278","-117.35944","n/a","11.1","degrees Celsius","7.63","pH units","79.8","microSiemens per centimetre","0.23","NTU","70.9","microSiemens per centimetre","19.2","Degrees Celsius","n/a"
"2018-07-22 00:00:00","silverton_creek","49.95278","-117.35944","n/a","12.3","degrees Celsius","7.7","pH units","92.9","microSiemens per centimetre","0.31","NTU","83.1","microSiemens per centimetre","19.5","Degrees Celsius","n/a"
"2018-08-05 00:00:00","silverton_creek","49.95278","-117.35944","n/a","13.7","degrees Celsius","7.89","pH units","109.1","microSiemens per centimetre","0.22","NTU","97.4","microSiemens per centimetre","19.4","Degrees Celsius","n/a"
"2018-08-19 00:00:00","silverton_creek","49.95278","-117.35944","n/a","11.9","degrees Celsius","7.99","pH units","121.5","microSiemens per centimetre","0.3","NTU","102.1","microSiemens per centimetre","16.6","Degrees Celsius","n/a"
"2018-09-02 00:00:00","silverton_creek","49.95278","-117.35944","n/a","10.9","degrees Celsius","8.05","pH units","127.6","microSiemens per centimetre","0.49","NTU","94.4","microSiemens per centimetre","11.4","Degrees Celsius","n/a"
"2018-09-16 00:00:00","silverton_creek","49.95278","-117.35944","n/a","9.2","degrees Celsius","8.07","pH units","120.6","microSiemens per centimetre","0.35","NTU","88.1","microSiemens per centimetre","10.9","Degrees Celsius","n/a"
"2018-09-30 00:00:00","silverton_creek","49.95278","-117.35944","n/a","7.2","degrees Celsius","8.07","pH units","120.1","microSiemens per centimetre","0.62","NTU","87.1","microSiemens per centimetre","10.6","Degrees Celsius","n/a"
"2018-10-14 00:00:00","silverton_creek","49.95278","-117.35944","n/a","4.6","degrees Celsius","8.06","pH units","114.6","microSiemens per centimetre","0.38","NTU","83.3","microSiemens per centimetre","10.7","Degrees Celsius","n/a"
"2018-10-28 00:00:00","silverton_creek","49.95278","-117.35944","n/a","5.8","degrees Celsius","8.06","pH units","109.9","microSiemens per centimetre","0.39","NTU","80.6","microSiemens per centimetre","11.1","Degrees Celsius","n/a"
"2018-11-04 00:00:00","silverton_creek","49.95278","-117.35944","n/a","5.1","degrees Celsius","8.08","pH units","101.3","microSiemens per centimetre","0.58","NTU","74.7","microSiemens per centimetre","11.2","Degrees Celsius","n/a"
"2018-11-11 00:00:00","silverton_creek","49.95278","-117.35944","n/a","3.2","degrees Celsius","8.04","pH units","108.7","microSiemens per centimetre","0.35","NTU","79.8","microSiemens per centimetre","11.1","Degrees Celsius","n/a"
"2018-11-24 00:00:00","silverton_creek","49.95278","-117.35944","n/a","3.6","degrees Celsius","8.03","pH units","116.9","microSiemens per centimetre","0.41","NTU","85.8","microSiemens per centimetre","11.1","Degrees Celsius","n/a"
"2018-12-09 00:00:00","silverton_creek","49.95278","-117.35944","Analysis","0.8","degrees Celsius","8.03","pH units","121.6","microSiemens per centimetre","1.25","NTU","89.9","microSiemens per centimetre","11.4","Degrees Celsius","n/a"
"2018-12-23 00:00:00","silverton_creek","49.95278","-117.35944","n/a","1.6","degrees Celsius","8.17","pH units","131.7","microSiemens per centimetre","0.47","NTU","106.3","microSiemens per centimetre","15","Degrees Celsius","n/a"
"2019-01-06 00:00:00","silverton_creek","49.95278","-117.35944","n/a","2.8","degrees Celsius","8.15","pH units","128.2","microSiemens per centimetre","0.33","NTU","101.7","microSiemens per centimetre","14.3","Degrees Celsius","n/a"
"2019-01-20 00:00:00","silverton_creek","49.95278","-117.35944","n/a","2.7","degrees Celsius","8.16","pH units","139.1","microSiemens per centimetre","0.56","NTU","110.3","microSiemens per centimetre","14.3","Degrees Celsius","n/a"
"2019-02-03 00:00:00","silverton_creek","49.95278","-117.35944","n/a","1.9","degrees Celsius","8.13","pH units","142.1","microSiemens per centimetre","0.48","NTU","113.4","microSiemens per centimetre","14.4","Degrees Celsius","n/a"
"2019-02-17 00:00:00","silverton_creek","49.95278","-117.35944","n/a","1.8","degrees Celsius","8.14","pH units","71.3","microSiemens per centimetre","0.49","NTU","57.2","microSiemens per centimetre","14.7","Degrees Celsius","n/a"
"2019-03-03 00:00:00","silverton_creek","49.95278","-117.35944","n/a","0.6","degrees Celsius","8.13","pH units","147.9","microSiemens per centimetre","0.49","NTU","119.2","microSiemens per centimetre","15","Degrees Celsius","n/a"
"2019-03-17 00:00:00","silverton_creek","49.95278","-117.35944","n/a","2.8","degrees Celsius","8.14","pH units","149.1","microSiemens per centimetre","0.5","NTU","118.5","microSiemens per centimetre","14.3","Degrees Celsius","n/a"
"2019-03-31 00:00:00","silverton_creek","49.95278","-117.35944","n/a","4.4","degrees Celsius","8.1","pH units","159.3","microSiemens per centimetre","0.71","NTU","130.9","microSiemens per centimetre","15.7","Degrees Celsius","n/a"
"2019-04-07 00:00:00","silverton_creek","49.95278","-117.35944","n/a","4.7","degrees Celsius","8.14","pH units","149.3","microSiemens per centimetre","0.65","NTU","125.6","microSiemens per centimetre","16.6","Degrees Celsius","n/a"
"2019-04-14 00:00:00","silverton_creek","49.95278","-117.35944","n/a","5.6","degrees Celsius","8.14","pH units","150.3","microSiemens per centimetre","0.39","NTU","125.1","microSiemens per centimetre","16.2","Degrees Celsius","n/a"
"2019-04-21 00:00:00","silverton_creek","49.95278","-117.35944","Analysis","5.3","degrees Celsius","8.18","pH units","119.2","microSiemens per centimetre","0.49","NTU","98.2","microSiemens per centimetre","15.8","Degrees Celsius","n/a"
"2019-04-28 00:00:00","silverton_creek","49.95278","-117.35944","n/a","5.8","degrees Celsius","7.85","pH units","115.3","microSiemens per centimetre","2.96","NTU","104","microSiemens per centimetre","19.9","Degrees Celsius","n/a"
"2019-05-05 00:00:00","silverton_creek","49.95278","-117.35944","n/a","6.6","degrees Celsius","7.9","pH units","116.1","microSiemens per centimetre","0.35","NTU","104.8","microSiemens per centimetre","19.9","Degrees Celsius","n/a"
"2019-05-12 00:00:00","silverton_creek","49.95278","-117.35944","n/a","7.2","degrees Celsius","7.95","pH units","76.2","microSiemens per centimetre","1.6","NTU","68.8","microSiemens per centimetre","19.9","Degrees Celsius","n/a"
"2019-05-19 00:00:00","silverton_creek","49.95278","-117.35944","n/a","6.2","degrees Celsius","7.99","pH units","69.9","microSiemens per centimetre","0.73","NTU","63.1","microSiemens per centimetre","19.9","Degrees Celsius","n/a"
"2019-05-26 00:00:00","silverton_creek","49.95278","-117.35944","n/a","7.6","degrees Celsius","8","pH units","68.9","microSiemens per centimetre","0.22","NTU","62.3","microSiemens per centimetre","20","Degrees Celsius","n/a"
"2019-06-02 00:00:00","silverton_creek","49.95278","-117.35944","n/a","7.6","degrees Celsius","8.04","pH units","55.9","microSiemens per centimetre","0.54","NTU","50.7","microSiemens per centimetre","20.1","Degrees Celsius","n/a"
"2019-06-09 00:00:00","silverton_creek","49.95278","-117.35944","Creek volume down","9","degrees Celsius","7.96","pH units","73","microSiemens per centimetre","0.23","NTU","66.2","microSiemens per centimetre","20.2","Degrees Celsius","n/a"
"2019-06-23 00:00:00","silverton_creek","49.95278","-117.35944","n/a","10.1","degrees Celsius","7.96","pH units","78.7","microSiemens per centimetre","0.46","NTU","71.2","microSiemens per centimetre","20","Degrees Celsius","n/a"
"2019-07-07 00:00:00","silverton_creek","49.95278","-117.35944","Thunderstorms: creek murky last Sun and earlier week but OK today, Other creeks weren't affected","11.3","degrees Celsius","8","pH units","77.1","microSiemens per centimetre","0.24","NTU","69.9","microSiemens per centimetre","20.1","Degrees Celsius","n/a"
"2019-07-21 00:00:00","silverton_creek","49.95278","-117.35944","n/a","12.3","degrees Celsius","7.96","pH units","86.6","microSiemens per centimetre","0.21","NTU","78.6","microSiemens per centimetre","20.1","Degrees Celsius","n/a"
"2019-08-04 00:00:00","silverton_creek","49.95278","-117.35944","Analysis","13.1","degrees Celsius","7.94","pH units","99","microSiemens per centimetre","0.24","NTU","89.9","microSiemens per centimetre","20.2","Degrees Celsius","n/a"
"2019-08-18 00:00:00","silverton_creek","49.95278","-117.35944","n/a","12.2","degrees Celsius","8.09","pH units","97.3","microSiemens per centimetre","0.44","NTU","77.3","microSiemens per centimetre","14.2","Degrees Celsius","n/a"
"2019-09-01 00:00:00","silverton_creek","49.95278","-117.35944","n/a","13.5","degrees Celsius","8.13","pH units","123","microSiemens per centimetre","0.35","NTU","96.2","microSiemens per centimetre","13.6","Degrees Celsius","n/a"
"2019-09-15 00:00:00","silverton_creek","49.95278","-117.35944","n/a","10.5","degrees Celsius","8.15","pH units","72.2","microSiemens per centimetre","0.74","NTU","56.2","microSiemens per centimetre","13.4","Degrees Celsius","n/a"
"2019-09-29 00:00:00","silverton_creek","49.95278","-117.35944","n/a","5","degrees Celsius","8.18","pH units","88.5","microSiemens per centimetre","1.07","NTU","68.6","microSiemens per centimetre","13.2","Degrees Celsius","n/a"
"2019-10-13 00:00:00","silverton_creek","49.95278","-117.35944","n/a","4.3","degrees Celsius","8.12","pH units","101.4","microSiemens per centimetre","0.5","NTU","79.1","microSiemens per centimetre","13.5","Degrees Celsius","n/a"
"2019-10-27 00:00:00","silverton_creek","49.95278","-117.35944","n/a","2.8","degrees Celsius","8.1","pH units","87","microSiemens per centimetre","0.46","NTU","87","microSiemens per centimetre","13.5","Degrees Celsius","n/a"
"2019-11-10 00:00:00","silverton_creek","49.95278","-117.35944","Analysis","3.8","degrees Celsius","8.09","pH units","72.9","microSiemens per centimetre","0.7","NTU","72.9","microSiemens per centimetre","14","Degrees Celsius","n/a"
"2019-11-24 00:00:00","silverton_creek","49.95278","-117.35944","Low water","2.2","degrees Celsius","8.79","pH units","129","microSiemens per centimetre","0.71","NTU","102","microSiemens per centimetre","13.8","Degrees Celsius","n/a"
"2019-12-08 00:00:00","silverton_creek","49.95278","-117.35944","n/a","2.3","degrees Celsius","8.55","pH units","126.6","microSiemens per centimetre","0.35","NTU","97.4","microSiemens per centimetre","12.9","Degrees Celsius","n/a"
"2019-12-22 00:00:00","silverton_creek","49.95278","-117.35944","n/a","2.3","degrees Celsius","8.42","pH units","126.4","microSiemens per centimetre","0.67","NTU","95.7","microSiemens per centimetre","12.3","Degrees Celsius","n/a"
"2020-01-05 00:00:00","silverton_creek","49.95278","-117.35944","n/a","2.3","degrees Celsius","8.33","pH units","135.9","microSiemens per centimetre","0.41","NTU","102.9","microSiemens per centimetre","12.3","Degrees Celsius","n/a"
"2020-01-19 00:00:00","silverton_creek","49.95278","-117.35944","n/a","0.2","degrees Celsius","8.28","pH units","135.7","microSiemens per centimetre","1.17","NTU","102.8","microSiemens per centimetre","12.3","Degrees Celsius","n/a"
"2020-02-02 00:00:00","silverton_creek","49.95278","-117.35944","n/a","1.2","degrees Celsius","8.25","pH units","127.5","microSiemens per centimetre","0.76","NTU","96.9","microSiemens per centimetre","12.4","Degrees Celsius","n/a"
"2020-02-16 00:00:00","silverton_creek","49.95278","-117.35944","Analysis","2.4","degrees Celsius","8.17","pH units","147.3","microSiemens per centimetre","1.29","NTU","113.7","microSiemens per centimetre","13","Degrees Celsius","n/a"
"2020-03-01 00:00:00","silverton_creek","49.95278","-117.35944","n/a","2.9","degrees Celsius","8.48","pH units","165.3","microSiemens per centimetre","0.22","NTU","139.8","microSiemens per centimetre","16.9","Degrees Celsius","n/a"
"2020-03-15 00:00:00","silverton_creek","49.95278","-117.35944","n/a","0.2","degrees Celsius","8.19","pH units","164.5","microSiemens per centimetre","0.55","NTU","136","microSiemens per centimetre","15.9","Degrees Celsius","n/a"
"2020-03-29 00:00:00","silverton_creek","49.95278","-117.35944","n/a","4.2","degrees Celsius","8.09","pH units","174.3","microSiemens per centimetre","0.19","NTU","144.4","microSiemens per centimetre","16","Degrees Celsius","n/a"
"2020-04-12 00:00:00","silverton_creek","49.95278","-117.35944","n/a","3.9","degrees Celsius","7.99","pH units","195.7","microSiemens per centimetre","1.15","NTU","162.1","microSiemens per centimetre","16","Degrees Celsius","n/a"
"2020-04-26 00:00:00","silverton_creek","49.95278","-117.35944","n/a","6","degrees Celsius","8.02","pH units","160.8","microSiemens per centimetre","0.56","NTU","133.7","microSiemens per centimetre","16.2","Degrees Celsius","n/a"
"2020-05-03 00:00:00","silverton_creek","49.95278","-117.35944","n/a","5.4","degrees Celsius","8.05","pH units","132","microSiemens per centimetre","8.67","NTU","110.2","microSiemens per centimetre","16.4","Degrees Celsius","n/a"
"2020-05-10 00:00:00","silverton_creek","49.95278","-117.35944","Start freshette","6.4","degrees Celsius","8.06","pH units","118","microSiemens per centimetre","1.4","NTU","98.2","microSiemens per centimetre","16.2","Degrees Celsius","n/a"
"2020-05-17 00:00:00","silverton_creek","49.95278","-117.35944","n/a","5.6","degrees Celsius","8.11","pH units","94.5","microSiemens per centimetre","1.21","NTU","78.7","microSiemens per centimetre","16.2","Degrees Celsius","n/a"
"2020-03-24 00:00:00","silverton_creek","49.95278","-117.35944","n/a","6.6","degrees Celsius","8.12","pH units","84.1","microSiemens per centimetre","1.1","NTU","70.4","microSiemens per centimetre","16.5","Degrees Celsius","n/a"
"2020-05-31 00:00:00","silverton_creek","49.95278","-117.35944","Warm rain and flooding with upstream washouts of logging road","5.1","degrees Celsius","7.9","pH units","100.1","microSiemens per centimetre","1392","NTU","86.7","microSiemens per centimetre","17.9","Degrees Celsius","Turbidity is at an unexpected high value"
"2020-06-07 00:00:00","silverton_creek","49.95278","-117.35944","n/a","6.4","degrees Celsius","8.15","pH units","70.4","microSiemens per centimetre","1.97","NTU","60.1","microSiemens per centimetre","17.3","Degrees Celsius","n/a"
"2020-06-14 00:00:00","silverton_creek","49.95278","-117.35944","Analysis","7.2","degrees Celsius","8.19","pH units","62.6","microSiemens per centimetre","4.14","NTU","53.6","microSiemens per centimetre","17.5","Degrees Celsius","n/a"
"2020-06-21 00:00:00","silverton_creek","49.95278","-117.35944","n/a","8.8","degrees Celsius","8.36","pH units","65.5","microSiemens per centimetre","2.41","NTU","59.2","microSiemens per centimetre","20.1","Degrees Celsius","n/a"
"2020-06-28 00:00:00","silverton_creek","49.95278","-117.35944","n/a","8.7","degrees Celsius","8.34","pH units","31","microSiemens per centimetre","1.49","NTU","28.1","microSiemens per centimetre","20","Degrees Celsius","n/a"
"2020-07-05 00:00:00","silverton_creek","49.95278","-117.35944","n/a","9.2","degrees Celsius","8.24","pH units","35.3","microSiemens per centimetre","0.98","NTU","31.9","microSiemens per centimetre","19.9","Degrees Celsius","n/a"
"2020-07-12 00:00:00","silverton_creek","49.95278","-117.35944","n/a","10.3","degrees Celsius","8.2","pH units","76.7","microSiemens per centimetre","0.54","NTU","69.4","microSiemens per centimetre","19.9","Degrees Celsius","n/a"
"2020-07-19 00:00:00","silverton_creek","49.95278","-117.35944","Analysis    End of freshette","11.8","degrees Celsius","8.16","pH units","84.7","microSiemens per centimetre","0.51","NTU","77","microSiemens per centimetre","20.2","Degrees Celsius","n/a"
"2020-08-02 00:00:00","silverton_creek","49.95278","-117.35944","n/a","14.8","degrees Celsius","8.12","pH units","63","microSiemens per centimetre","0.39","NTU","49.8","microSiemens per centimetre","13.8","Degrees Celsius","n/a"
"2020-08-16 00:00:00","silverton_creek","49.95278","-117.35944","n/a","13.1","degrees Celsius","8.08","pH units","111.8","microSiemens per centimetre","0.39","NTU","86.3","microSiemens per centimetre","12.9","Degrees Celsius","n/a"
"2020-08-30 00:00:00","silverton_creek","49.95278","-117.35944","n/a","10.3","degrees Celsius","8.05","pH units","78.6","microSiemens per centimetre","0.62","NTU","60.1","microSiemens per centimetre","12.6","Degrees Celsius","n/a"
"2020-09-13 00:00:00","silverton_creek","49.95278","-117.35944","n/a","10.6","degrees Celsius","7.86","pH units","208.7","microSiemens per centimetre","0.8","NTU","161.5","microSiemens per centimetre","13.2","Degrees Celsius","n/a"
"2020-09-27 00:00:00","silverton_creek","49.95278","-117.35944","n/a","7.7","degrees Celsius","8.1","pH units","114.2","microSiemens per centimetre","0.54","NTU","90.1","microSiemens per centimetre","14","Degrees Celsius","n/a"
"2020-10-11 00:00:00","silverton_creek","49.95278","-117.35944","n/a","7.4","degrees Celsius","8.08","pH units","96.1","microSiemens per centimetre","1.14","NTU","74.5","microSiemens per centimetre","13.2","Degrees Celsius","n/a"
"2020-10-25 00:00:00","silverton_creek","49.95278","-117.35944","n/a","0.8","degrees Celsius","8.05","pH units","122","microSiemens per centimetre","0.43","NTU","92.3","microSiemens per centimetre","12.3","Degrees Celsius","n/a"
"2020-11-08 00:00:00","silverton_creek","49.95278","-117.35944","n/a","2.1","degrees Celsius","8.16","pH units","96.3","microSiemens per centimetre","1.21","NTU","72.9","microSiemens per centimetre","12.2","Degrees Celsius","n/a"
"2020-11-22 00:00:00","silverton_creek","49.95278","-117.35944","Analysis","2.3","degrees Celsius","8.07","pH units","110.1","microSiemens per centimetre","0.67","NTU","85.1","microSiemens per centimetre","13.1","Degrees Celsius","n/a"
"2021-01-03 00:00:00","silverton_creek","49.95278","-117.35944","n/a","2.3","degrees Celsius","8.07","pH units","129.6","microSiemens per centimetre","0.78","NTU"
"2021-01-17 00:00:00","silverton_creek","49.95278","-117.35944","n/a","1.5","degrees Celsius","8.04","pH units","137.5","microSiemens per centimetre","0.38","NTU"
"2021-01-31 00:00:00","silverton_creek","49.95278","-117.35944","n/a","2","degrees Celsius","8.02","pH units","137.2","microSiemens per centimetre","0.5","NTU"
"2021-02-13 00:00:00","silverton_creek","49.95278","-117.35944","n/a","0.2","degrees Celsius","8","pH units","151.3","microSiemens per centimetre","0.93","NTU"
"2021-02-28 00:00:00","silverton_creek","49.95278","-117.35944","n/a","2.1","degrees Celsius","8.04","pH units","148.3","microSiemens per centimetre","0.45","NTU"
"2021-03-14 00:00:00","silverton_creek","49.95278","-117.35944","n/a","3.2","degrees Celsius","8.02","pH units","156.1","microSiemens per centimetre","0.54","NTU"
"2021-03-28 00:00:00","silverton_creek","49.95278","-117.35944","n/a","3.7","degrees Celsius","8.02","pH units","163.7","microSiemens per centimetre","0.57","NTU"
"2021-04-11 00:00:00","silverton_creek","49.95278","-117.35944","n/a","3.8","degrees Celsius","8.01","pH units","96.9","microSiemens per centimetre","1.2","NTU"